Location: Bad Salzschlirf
(50.3750°N, 9.3000°E)
Time: 05:44:09
(UTC+01:00)

ISS - Pass Details

Date: 21 January 2021
Orbit: 418 x 421 km, 51.6° (Epoch: 23 January)

Event Time Altitude Azimuth Distance (km) Brightness Sun altitude
Rises 17:52:40 0° 201° (SSW) 2,357 0.7 -8.7°
Reaches altitude 10° 17:55:20 10° 178° (S) 1,498 -0.7 -9.1°
Maximum altitude 17:57:27 16° 139° (SE) 1,200 -1.6 -9.4°
Enters shadow 17:59:26 11° 102° (ESE) 1,474 -1.5 -9.7°
